Location: Oshawa
(43.9000°N, 78.8670°W)
Time: 21:47:31
(UTC-04:00)

Transit 2A Rocket - Visible Passes

Search period start: 17 October 2017 00:00
Search period end: 27 October 2017 00:00
Orbit: 584 x 919 km, 66.7° (Epoch: 17 October)

Date Brightness Start Highest point End Pass type
(mag) Time Alt. Az. Time Alt. Az. Time Alt. Az.
18 Oct 7.8 19:35:25 10° NNW 19:36:27 10° NNW 19:37:29 10° N visible
19 Oct 7.6 18:50:28 10° WNW 18:53:17 14° NNW 18:56:12 10° N visible
22 Oct 7.9 21:57:15 10° N 21:57:41 11° N 21:57:41 11° N visible
23 Oct 7.7 21:15:40 10° N 21:16:17 11° NNE 21:16:17 11° NNE visible
24 Oct 7.9 22:14:18 10° NNW 22:14:48 12° N 22:14:48 12° N visible
25 Oct 7.7 21:32:13 10° N 21:33:25 13° N 21:33:25 13° N visible
26 Oct 7.5 20:50:21 10° N 20:52:04 13° NNE 20:52:04 13° NNE visible
26 Oct 8.1 22:31:40 10° NNW 22:31:58 11° NNW 22:31:58 11° NNW visible
